Find Starlink 33752

NORAD ID: 63580 Int'l Des: 2025-076 Owner: SPXS Country: US Constellation: starlink operational
LEOCIRCULAR

Live-Position

3D-Globus wird geladen...

Über Starlink 33752

Beschreibung wird geladen...

Nächste Überflüge

Passes for default location (London). Set your location on the main map for personalized predictions.

Höhenverlauf

Loading altitude history...

Zweizeiliger Elementsatz

1 63580U 25076M 26107.03599070 .00006983 00000-0 26299-3 0 9998
2 63580 43.0002 105.2527 0001041 271.9398 88.1334 15.27585929 57697
Epoch: 17. Apr. 2026 • Age: 16 hours

Aktueller Status

Höhe 486.5 km
Geschwindigkeit 7.63 km/s
Subsatellitenpunkt 41.56°N, 109.46°E
Startdatum 14. Apr. 2025
Alter 1 years
Typ internet

Technische Details

Klassifizierung Payload
Masse 575.00 kg
Trockenmasse 530.00 kg
Gesamtmasse 575.00 kg
Länge 0.30 m
Durchmesser 4.10 m
Spannweite 29.00 m
Form Box + pan
Hersteller SPXS
Bus-Typ Starlink V2MO
Phasenstatus In Orbit
Besitzer/Staat SPXS/US

Most Searched